Theta_e
348 348 350 348 342 341 344 345 346 345 345 344 343 342 341 339 335 336 337 338 343 347 345 341 336 336 332 325 325 325 325 330 335 339 337 337 336 334 332 332 329 333 330
348 348 348 345 339 341 343 344 345 344 344 344 344 345 344 340 336 337 338 339 342 345 343 336 328 325 326 326 326 326 326 329 332 333 333 333 336 332 328 327 329 327 328
348 348 347 341 337 339 342 342 342 343 344 344 344 345 344 340 337 338 339 339 341 339 332 322 323 325 326 327 327 333 334 330 329 329 330 330 336 330 327 326 327 329 329
347 348 346 338 334 338 341 340 339 340 340 342 344 345 342 338 337 338 336 335 333 329 321 323 325 326 328 336 338 342 343 343 344 343 334 330 332 330 329 330 329 328 328
347 348 345 337 333 335 339 338 337 335 335 337 340 341 339 337 337 337 334 332 331 322 323 327 327 327 331 339 341 340 340 340 339 338 340 340 334 333 334 332 331 329 327
348 348 346 338 333 333 336 336 335 333 332 332 333 335 335 336 338 336 332 334 331 321 326 328 328 330 336 338 339 338 339 337 336 336 338 340 337 335 336 336 332 331 328
351 351 349 339 333 332 335 336 334 333 332 332 332 333 335 336 338 336 335 335 332 322 325 328 329 330 332 334 336 337 337 336 335 335 337 338 339 337 335 335 335 333 331
350 352 350 342 334 332 334 335 334 333 332 332 332 334 335 337 338 336 336 334 330 324 321 326 328 329 331 331 332 335 335 333 332 330 331 334 337 338 337 333 334 335 334
353 354 354 347 336 332 334 336 335 334 333 332 332 333 334 334 336 337 336 334 329 323 319 325 329 331 330 330 330 330 330 328 328 328 328 330 330 333 338 334 332 333 334
355 356 353 354 342 333 333 335 335 334 334 333 331 333 333 334 336 337 337 335 330 322 319 319 326 330 330 330 329 328 326 323 322 320 325 328 327 332 334 334 331 331 332
353 356 357 348 344 337 333 335 337 336 335 335 334 333 334 336 337 337 335 333 330 324 320 319 322 326 329 329 328 326 324 320 318 317 321 325 326 329 331 333 332 331 331
354 355 356 350 344 338 335 336 337 338 337 336 335 334 332 332 332 333 333 333 331 328 321 319 319 322 327 329 327 325 320 318 318 320 322 325 329 331 332 332 332 332 331
353 353 354 352 345 340 336 335 336 338 338 338 337 336 336 335 334 334 333 332 330 328 324 319 318 319 322 324 324 321 318 317 323 327 327 330 332 333 334 334 332 333 332
353 350 351 349 347 342 336 334 335 337 337 338 337 337 337 337 337 336 335 334 332 330 327 323 319 318 318 318 319 318 317 317 324 329 332 333 335 338 340 338 333 335 335
353 352 349 348 347 345 340 337 335 336 337 338 339 339 338 338 337 337 338 337 335 333 330 328 324 321 319 318 318 317 316 317 319 324 331 334 336 339 341 338 336 336 337
353 353 351 348 348 347 346 341 338 337 338 339 340 340 341 341 340 338 338 339 339 337 334 331 329 326 323 321 319 318 317 317 318 319 328 332 335 339 342 339 337 337 339
344 352 352 350 348 348 346 345 343 342 344 343 345 345 344 343 342 341 340 340 339 340 339 337 334 331 329 325 323 321 320 318 318 318 319 327 330 336 343 342 340 340 340
325 343 351 351 350 349 348 348 348 348 348 348 348 348 347 345 345 344 342 341 340 340 341 341 340 337 335 332 329 326 322 320 319 318 318 326 332 335 342 344 343 342 341
319 332 346 349 350 349 348 349 348 348 348 347 347 346 342 342 343 346 344 343 342 341 341 342 342 341 340 338 335 333 330 326 322 320 322 328 332 338 341 342 344 343 341
319 322 326 341 346 344 344 346 346 346 345 343 340 336 344 346 347 347 346 345 344 343 343 343 342 343 342 340 340 338 336 333 329 323 321 327 330 333 339 342 343 343 342
321 327 328 330 338 343 342 342 344 345 343 343 340 338 339 342 345 347 348 347 345 344 344 342 341 341 340 339 333 335 335 335 334 330 325 324 331 331 336 338 342 344 344
323 326 329 334 335 339 340 342 344 342 342 342 341 339 339 343 345 347 348 344 342 335 342 342 341 339 337 337 335 332 336 335 334 333 330 329 328 331 332 336 337 339 343
324 329 333 335 339 340 340 341 342 340 340 340 340 339 339 346 347 346 345 342 337 336 333 337 337 339 338 339 336 336 334 336 331 332 332 332 332 331 330 330 334 339 343
325 326 325 325 327 330 338 342 345 346 345 342 337 335 335 336 342 344 345 343 341 339 339 337 336 336 340 338 338 336 335 334 335 336 332 332 331 332 331 329 329 338 342
317 318 319 320 320 321 323 323 323 323 323 323 323 323 322 322 322 323 329 336 342 342 341 337 338 341 339 339 339 338 336 335 334 333 337 333 335 334 332 333 331 337 340
312 313 314 315 315 316 317 317 318 318 318 319 318 318 318 318 320 323 324 326 326 327 331 335 339 340 341 340 340 338 338 335 335 336 337 336 336 336 335 333 336 338 340
Wind_Speed
21 31 30 30 32 33 32 33 37 36 36 33 31 30 28 26 26 26 25 24 22 19 16 15 14 14 14 15 16 15 15 15 14 12 11 10 9 9 9 9 10 10 9
28 34 32 32 33 33 33 34 34 34 33 31 30 29 27 26 27 25 24 22 21 18 15 14 14 15 16 17 17 17 16 14 12 11 10 10 9 7 8 8 8 8 8
34 34 33 33 33 31 31 31 32 31 31 30 30 28 27 27 26 25 23 21 19 17 15 16 17 17 17 18 18 16 14 12 10 9 8 7 8 6 7 7 7 6 7
35 35 33 32 31 30 28 29 29 29 29 29 29 29 27 26 26 25 22 20 18 17 17 18 18 18 18 17 16 14 11 9 7 5 5 5 5 5 5 5 5 5 5
34 33 32 30 30 29 27 27 28 28 28 28 27 26 26 26 25 23 22 20 18 17 18 18 17 17 17 17 15 13 10 7 4 2 2 3 4 3 3 3 3 3 4
32 33 31 30 29 30 29 27 26 26 25 25 26 25 25 25 24 23 21 19 17 18 19 18 18 18 18 16 14 11 10 6 3 1 1 5 6 4 3 3 3 2 2
28 28 28 29 28 29 28 27 26 25 24 23 24 24 24 24 23 21 19 17 16 17 19 19 18 17 17 15 13 11 8 5 3 1 0 3 5 5 5 4 5 4 4
28 28 26 27 26 27 27 27 26 25 23 22 22 23 23 22 20 19 17 16 15 16 18 18 18 17 15 14 13 11 9 6 5 4 2 3 6 7 8 7 7 7 7
21 22 20 23 26 26 26 25 26 24 22 21 21 22 23 22 20 17 15 13 14 15 17 18 17 16 15 14 13 11 10 8 8 7 7 6 6 10 10 9 8 9 9
16 17 19 19 22 26 26 26 25 24 22 20 20 20 20 20 19 17 15 13 13 13 14 16 17 16 15 14 13 12 11 11 11 11 11 10 8 7 10 10 9 10 10
16 21 23 24 22 24 25 24 24 23 22 21 19 19 19 19 18 17 16 15 14 14 14 15 17 17 16 16 15 14 13 13 13 12 13 11 10 9 9 12 12 10 11
18 18 21 26 27 26 25 24 23 23 22 22 21 20 19 19 19 18 17 16 15 15 16 17 17 18 18 18 17 16 16 14 14 13 14 12 11 11 12 13 13 12 12
20 20 22 26 28 29 28 27 26 25 24 23 22 22 22 21 21 20 19 19 19 18 19 19 19 20 20 20 20 18 17 17 16 15 15 13 12 13 14 13 14 12 12
20 28 28 30 30 30 30 31 31 31 30 30 29 27 26 24 23 23 22 22 22 23 23 23 23 23 23 23 23 22 20 20 19 17 16 15 13 13 14 15 15 13 13
23 25 31 35 35 36 35 35 36 35 34 34 34 33 31 30 29 27 27 25 25 25 26 25 25 26 26 25 25 25 24 23 23 21 19 17 15 15 13 13 14 14 13
26 29 31 35 37 38 39 40 40 37 38 35 35 35 35 35 35 34 32 29 30 29 28 28 27 28 29 27 27 27 27 27 26 24 24 20 19 18 15 15 15 15 14
26 29 35 38 38 39 41 40 38 41 36 38 36 34 34 34 35 35 38 34 32 32 30 29 29 29 30 29 30 29 30 30 30 28 26 26 23 22 19 17 17 18 16
25 31 37 37 37 39 40 39 36 33 30 28 29 28 29 30 33 33 37 37 33 34 33 32 31 30 33 31 31 31 31 32 31 30 28 28 25 25 22 19 18 20 19
32 32 32 36 38 36 25 25 27 26 30 27 25 25 23 27 29 32 34 31 32 33 34 34 33 31 32 32 32 33 33 34 34 30 32 30 28 26 26 25 23 22 21
21 22 25 28 31 28 26 21 26 28 28 28 27 24 23 22 23 25 26 32 28 29 29 32 34 34 34 35 33 31 33 33 32 33 35 32 32 31 28 28 26 24 22
13 15 18 20 26 32 30 29 26 29 28 28 28 28 23 24 24 20 23 26 18 24 27 28 31 28 30 33 23 25 31 32 32 37 36 34 34 35 33 29 28 28 26
18 19 18 16 18 22 26 27 22 12 19 26 28 28 26 24 23 20 20 12 8 39 21 24 23 24 24 21 16 7 5 10 22 30 33 34 36 36 36 34 31 32 29
8 5 5 6 8 10 15 18 18 19 20 23 25 29 27 22 23 24 24 27 23 37 36 34 28 24 23 21 21 13 2 5 1 13 20 27 32 39 42 39 34 32 30
17 17 17 16 14 9 5 7 9 10 10 7 6 7 9 10 12 15 19 23 26 31 35 41 34 36 29 22 18 23 35 16 5 4 8 19 24 29 35 36 38 34 34
18 18 13 13 13 11 8 6 5 2 4 7 9 11 11 10 9 10 12 14 21 27 28 31 34 33 33 31 27 20 21 26 26 8 10 7 18 22 22 27 36 35 32
23 20 19 16 16 12 11 10 9 10 12 13 16 18 20 20 18 17 16 18 19 21 24 26 28 31 31 30 27 25 26 18 15 13 9 10 9 21 26 28 25 32 31
Wind_Direction
172 172 171 172 168 161 151 145 147 149 152 152 150 149 148 149 150 151 151 151 151 146 143 143 138 135 135 127 122 119 118 115 114 108 102 106 112 109 113 109 104 103 102
169 168 169 170 168 164 155 148 148 151 153 155 155 154 153 153 154 153 154 154 155 156 153 149 145 139 133 129 125 121 117 116 114 110 105 99 116 110 106 106 104 110 114
165 166 169 170 169 165 159 154 152 152 156 158 159 158 158 157 157 157 157 157 158 159 156 150 143 138 135 131 130 124 118 115 111 108 108 106 121 108 106 106 103 108 113
165 167 169 171 168 166 163 158 155 155 155 157 161 162 163 162 160 160 159 159 160 158 155 150 146 143 141 140 138 134 129 124 123 124 117 124 120 122 111 112 111 122 122
164 168 169 172 170 167 166 161 158 157 158 159 163 168 167 165 163 163 163 162 161 159 156 153 150 149 150 150 149 142 137 131 126 138 185 190 159 154 138 139 141 142 140
164 168 172 175 174 170 169 165 162 160 160 162 165 169 169 168 167 168 166 165 165 164 161 159 158 159 160 160 158 155 150 145 141 118 188 216 204 191 204 210 210 195 172
160 167 170 176 177 174 172 168 165 164 164 167 168 170 172 173 173 173 173 172 172 171 170 169 169 171 173 173 172 170 167 172 175 163 214 203 216 220 233 238 237 234 233
162 165 169 177 180 179 176 171 169 169 169 170 172 174 174 175 177 177 179 180 182 181 181 178 178 180 181 183 185 186 191 200 206 211 235 221 229 238 247 251 247 244 243
157 158 163 175 180 182 180 176 174 174 173 174 175 176 176 176 178 181 186 193 195 193 191 189 188 188 191 194 198 203 209 221 230 235 237 239 250 250 253 256 264 258 258
157 157 166 174 179 183 184 182 180 179 180 180 180 182 182 183 186 189 192 202 210 208 204 201 201 202 204 206 211 214 219 228 235 242 238 245 255 259 248 254 267 267 264
168 175 177 180 183 185 186 186 187 187 187 185 186 188 190 193 197 201 204 206 213 218 217 214 214 214 215 219 221 226 231 235 239 242 241 243 255 263 266 259 265 270 266
180 181 184 183 185 188 187 189 192 192 194 195 193 194 199 203 207 212 216 218 219 224 226 225 224 225 229 232 232 235 240 244 248 247 245 245 254 264 270 271 258 269 266
184 184 189 193 189 187 190 192 193 197 198 203 205 204 205 207 209 214 219 223 226 226 229 231 230 231 233 237 240 241 245 247 250 249 247 252 258 270 273 267 252 260 263
211 199 196 200 197 194 195 199 202 200 202 202 206 210 212 214 216 218 221 227 231 230 232 234 235 236 239 240 242 244 245 247 248 254 255 258 263 272 277 262 253 258 264
212 218 210 204 204 200 199 200 206 207 210 211 208 207 212 218 221 223 226 226 232 237 239 241 244 246 244 247 250 251 252 251 251 254 254 255 264 278 281 254 245 257 267
222 220 220 215 212 207 204 209 209 210 213 217 218 218 216 215 224 223 225 232 235 238 242 246 250 255 258 258 260 262 264 264 265 265 267 259 260 267 269 260 253 258 265
233 228 226 219 215 216 216 216 214 214 218 217 224 227 228 229 225 232 234 226 235 244 244 247 252 257 263 264 265 266 266 267 269 273 271 272 269 266 269 260 252 255 265
256 237 233 226 219 221 220 216 215 217 221 224 226 235 236 238 240 240 241 238 235 239 247 250 251 256 261 266 272 276 279 277 277 277 274 271 272 265 265 266 256 260 267
263 245 238 232 225 221 223 225 218 224 224 229 237 245 249 247 248 245 242 247 249 246 246 252 254 255 260 264 269 275 278 281 281 279 273 271 271 265 262 261 260 262 265
243 242 246 241 232 226 220 233 229 233 238 231 230 240 250 256 248 244 256 253 248 250 255 258 258 261 264 268 266 267 276 278 278 273 270 269 269 267 265 265 262 257 265
214 225 233 232 228 222 220 229 237 242 245 240 246 261 266 261 264 255 255 242 248 258 256 261 260 263 264 265 267 274 271 272 273 270 265 262 263 264 264 265 262 261 261
200 207 210 218 217 223 225 232 234 249 257 256 265 270 272 271 255 239 239 234 212 310 292 267 267 257 262 262 246 250 283 276 258 260 261 256 256 260 263 264 263 265 259
192 191 140 161 200 216 226 233 237 251 258 267 270 274 274 276 269 267 262 272 259 238 246 263 264 274 257 263 258 238 276 244 317 252 249 253 256 254 258 261 261 263 261
78 90 92 88 86 80 107 201 221 232 245 266 282 291 298 297 283 278 270 264 260 248 253 251 256 252 251 262 263 258 252 272 261 294 262 252 255 257 260 259 257 258 255
46 52 55 63 66 56 54 63 65 29 319 309 304 299 297 291 283 271 265 258 254 258 258 247 245 239 242 233 229 238 263 265 261 255 267 264 267 270 282 275 258 256 258
60 56 49 48 38 30 20 9 357 333 319 299 290 288 287 285 279 265 259 252 250 247 251 256 256 245 235 233 239 245 233 234 244 239 250 257 254 266 265 274 271 260 256